Overview Statistics Trail Chart Weather Telemetry Raw packets
 

This is the latest recevied weather packets stored in our database for station/object WA1TYB-13. If no packets are shown the sender has not sent any weather packets the latest 10 day(s).

<< 100 101 102 103 104 105 106 >>
Time Temp. Humidity Pressure Rain* Wind** Luminosity Snow
1787858276 26.11° C 33% 1018.2 hPa 0 mm - 479 W/m² -
1787857972 25° C 39% 1018.4 hPa 0 mm - 571 W/m² -
1787857668 25.56° C 41% 1018.6 hPa 0 mm - 560 W/m² -
1787857363 27.22° C 26% 1018.6 hPa 0 mm - 536 W/m² -
1787857061 26.67° C 25% 1018.6 hPa 0 mm - 521 W/m² -
1787856756 26.67° C 33% 1018.8 hPa 0 mm - 559 W/m² -
1787856450 25.56° C 32% 1018.9 hPa 0 mm - 565 W/m² -
1787856147 25° C 35% 1019.1 hPa 0 mm - 477 W/m² -
1787855841 23.89° C 39% 1019 hPa 0 mm - 420 W/m² -
1787855536 23.33° C 40% 1019.1 hPa 0 mm - 276 W/m² -
1787855231 22.22° C 44% 1019.1 hPa 0 mm - 463 W/m² -
1787854927 22.22° C 44% 1019.4 hPa 0 mm - 577 W/m² -
1787854621 21.11° C 48% 1019.8 hPa 0 mm - 566 W/m² -
1787854315 20.56° C 47% 1019.9 hPa 0 mm - 487 W/m² -
1787854011 20° C 47% 1020.2 hPa 0 mm - 478 W/m² -
1787853710 19.44° C 52% 1020.4 hPa 0 mm - 348 W/m² -
1787853404 19.44° C 55% 1020.4 hPa 0 mm - 444 W/m² -
1787853104 18.89° C 59% 1020.3 hPa 0 mm - 555 W/m² -
1787852804 17.78° C 59% 1019.7 hPa 0 mm - 544 W/m² -
1787852502 17.22° C 64% 1019.6 hPa 0 mm - 202 W/m² -
1787852198 17.22° C 64% 1020.2 hPa 0 mm - 117 W/m² -
1787851892 17.22° C 63% 1021.3 hPa 0 mm - 69 W/m² -
1787851591 17.22° C 63% 1021.3 hPa 0 mm - 38 W/m² -
1787851286 17.22° C 64% 1022 hPa 0 mm - 22 W/m² -
1787850981 17.22° C 63% 1022 hPa 0 mm - 26 W/m² -

* Rain latest hour (hover to see other rain measurements)
** Current wind speed in m/s (hover to see current wind gust speed)